Theta_e
296 299 317 319 322 323 325 325 325 325 325 326 327 327 329 329 328 328 327 329 329 330 332 333 334 334 333 333 332 332 333 337 339 342 345 345 344 347 348 348 349 346 346
296 300 317 320 321 322 323 323 324 324 325 327 325 327 327 327 326 328 328 327 328 327 328 329 331 333 333 333 334 332 332 333 336 337 339 338 336 339 346 347 346 347 349
298 301 304 320 319 321 321 322 322 323 327 326 325 325 325 324 326 326 324 324 325 326 327 328 327 328 329 331 331 331 331 331 332 334 335 332 329 337 341 345 347 346 347
299 301 303 318 319 319 320 320 321 322 323 323 321 322 321 320 321 321 320 322 321 322 323 325 327 327 327 329 330 331 331 330 330 330 326 325 328 334 338 341 345 348 347
298 301 305 317 317 317 317 318 319 320 319 319 319 319 318 318 319 318 318 317 319 319 320 323 323 327 326 327 327 329 330 330 330 327 320 321 323 328 335 339 340 343 346
296 299 307 315 315 315 315 315 316 318 317 318 317 317 317 317 317 316 317 318 318 317 320 320 321 323 325 326 327 327 327 329 329 320 318 320 321 328 333 337 339 341 343
295 297 299 312 312 312 313 315 315 315 314 315 315 315 315 316 315 314 314 316 316 317 319 319 319 320 322 324 324 325 325 326 321 318 315 317 322 325 330 334 337 340 342
295 295 296 305 309 309 310 313 313 314 314 314 314 314 314 313 312 312 313 313 314 317 317 317 317 318 319 320 322 323 321 321 316 307 314 312 319 324 329 331 333 336 340
295 294 293 294 300 305 307 311 311 311 312 312 312 311 311 309 308 309 311 312 313 314 315 315 316 315 317 317 318 319 317 317 310 303 305 309 318 324 327 329 331 333 336
293 293 292 291 292 292 293 307 308 309 309 309 308 308 307 305 307 308 309 309 311 312 312 313 313 313 313 314 313 313 312 312 299 301 303 305 318 323 325 327 329 331 333
293 291 291 290 291 292 295 298 301 305 305 304 302 304 298 293 293 298 305 307 308 308 310 310 310 310 311 308 308 308 309 298 298 299 300 309 316 321 323 325 327 329 330
289 290 290 290 290 291 296 291 292 295 292 292 292 291 292 291 293 298 300 304 304 304 305 306 306 307 303 298 298 302 297 297 297 297 299 309 315 319 321 322 324 326 327
287 290 291 290 290 290 290 291 290 291 291 291 291 291 291 291 290 291 292 293 292 298 295 296 297 296 296 297 297 297 297 297 296 297 299 308 313 316 318 320 321 323 326
287 289 291 291 289 289 290 289 289 290 291 290 290 291 289 288 288 289 290 291 291 293 292 293 293 294 295 296 296 296 297 296 296 297 298 306 310 314 316 319 320 322 325
287 289 290 291 289 289 289 289 289 289 289 289 290 291 290 288 287 288 289 290 291 291 292 292 293 294 296 295 295 298 297 296 296 296 297 305 308 311 314 317 319 320 324
287 288 289 291 290 290 289 288 289 289 290 289 289 290 290 289 287 287 288 290 290 291 292 293 293 292 294 295 295 296 298 298 296 296 297 297 306 309 312 315 317 319 323
286 288 289 292 291 290 289 289 289 289 291 289 289 289 289 290 288 287 288 289 290 292 292 292 292 292 292 293 294 295 295 298 297 296 297 296 298 304 308 312 315 317 321
286 287 288 292 290 290 289 289 289 289 289 289 288 288 290 290 289 288 288 289 291 291 291 291 292 293 293 291 293 295 296 297 298 295 296 296 297 297 301 308 312 316 320
287 287 288 289 289 289 289 289 289 289 288 288 288 288 289 290 290 288 288 289 292 292 292 293 294 293 292 290 293 295 296 296 297 297 296 296 296 298 297 302 308 312 318
287 287 288 289 289 289 289 289 289 288 288 288 288 288 289 289 289 288 291 291 293 293 293 294 294 294 291 291 294 294 294 295 295 294 294 295 296 296 296 296 297 301 313
287 287 287 288 288 288 287 286 286 285 286 287 288 289 289 289 290 289 293 293 295 293 293 294 293 292 289 293 292 293 292 294 291 291 293 292 293 295 294 296 296 300 306
285 286 287 288 288 288 288 287 286 285 286 287 288 288 289 289 289 291 292 296 295 295 294 293 293 292 292 294 291 291 288 288 292 296 297 295 292 294 295 295 295 301 304
285 285 287 287 288 288 287 288 287 286 286 285 287 287 288 288 289 292 293 296 296 296 294 294 294 293 291 294 295 292 287 287 289 295 295 296 297 294 293 294 295 301 302
286 286 287 287 288 289 287 286 284 282 282 284 284 286 287 288 288 289 292 295 293 296 296 295 296 295 294 292 294 296 295 293 289 288 293 294 297 296 293 294 294 297 301
286 285 286 287 288 288 287 286 284 283 284 284 285 285 285 287 288 289 290 292 291 293 295 295 296 296 296 294 294 294 293 294 292 290 288 290 295 295 295 295 295 296 299
285 286 286 287 287 287 287 287 285 284 284 284 284 284 285 286 287 288 290 290 290 290 292 294 295 295 293 296 295 295 293 290 290 289 289 289 291 294 293 295 296 297 299
Wind_Speed
5 7 12 13 14 16 18 19 19 19 18 18 18 16 17 19 19 18 17 19 19 19 19 21 21 19 18 17 15 15 14 18 19 20 18 14 14 14 9 9 6 2 5
3 7 13 13 15 16 17 18 18 18 18 17 16 18 18 20 19 18 20 19 19 18 19 21 21 23 20 19 19 16 15 15 18 19 20 14 14 14 13 9 9 6 7
6 6 8 15 15 16 17 18 17 16 17 16 17 19 18 19 18 20 20 21 22 21 20 19 19 21 22 20 19 18 18 15 16 18 20 6 8 14 15 15 10 10 10
6 6 8 15 16 16 17 17 17 15 15 17 17 17 18 17 18 20 19 18 20 20 21 19 19 18 20 20 22 22 20 18 15 17 8 9 10 15 15 15 15 14 11
9 8 9 15 16 17 17 16 15 16 16 15 14 16 17 18 18 18 18 18 18 19 19 19 20 20 17 18 20 21 20 20 19 15 6 7 8 12 17 15 15 15 14
7 7 10 15 16 17 17 15 14 14 15 14 14 15 15 15 16 17 18 18 18 18 19 18 19 20 20 20 18 19 22 21 19 8 6 5 8 14 17 16 14 15 16
6 7 8 17 17 17 16 15 15 14 12 13 13 14 16 17 16 19 18 17 16 19 19 19 19 21 22 19 18 19 19 20 15 14 5 5 4 16 18 16 16 17 16
6 6 7 14 17 17 17 15 15 15 15 15 16 16 17 19 19 18 17 17 16 19 19 17 20 19 22 22 21 19 20 21 15 12 9 5 12 17 18 19 18 18 19
6 6 6 6 10 14 16 16 15 15 16 16 16 17 18 19 18 18 18 17 19 20 20 19 19 20 20 20 22 22 20 23 13 9 12 5 14 16 19 20 19 19 20
6 6 6 6 6 7 6 16 15 14 15 16 18 19 18 18 18 18 17 18 21 22 21 19 18 20 21 21 21 23 22 20 9 11 8 7 17 16 20 20 19 21 21
6 6 6 6 6 6 5 8 11 14 15 16 14 17 11 5 8 10 17 20 21 22 22 23 21 19 21 21 20 20 20 6 8 7 7 18 21 19 20 22 22 22 22
5 6 5 5 6 6 5 5 5 6 4 5 6 6 5 6 7 12 14 18 19 20 19 20 20 20 17 6 7 14 5 7 7 7 7 21 22 21 21 23 24 23 23
3 3 5 5 5 5 4 3 3 3 3 4 6 5 4 5 4 4 3 4 4 12 4 8 8 6 8 7 7 8 8 7 5 6 10 21 22 21 21 23 23 24 24
4 4 5 5 5 5 3 3 4 4 3 4 4 6 4 3 4 4 3 5 4 4 6 5 5 8 7 8 9 9 10 7 5 5 8 21 21 20 20 22 22 23 22
5 6 6 5 6 4 5 4 4 4 3 4 4 5 4 4 5 4 5 5 5 5 5 5 5 7 10 11 8 11 9 9 8 5 5 20 21 21 20 21 22 21 23
5 6 6 5 5 5 4 5 4 4 4 4 4 5 6 5 4 5 6 6 6 5 5 5 6 6 7 9 10 10 11 8 8 7 7 8 20 20 20 20 21 21 23
3 5 6 5 6 6 6 5 4 4 4 4 4 6 7 6 6 6 6 6 6 6 7 6 6 5 6 7 10 9 10 11 7 8 7 7 9 18 21 21 20 22 21
4 5 6 5 6 7 6 5 4 4 4 4 4 5 7 8 7 6 5 6 6 6 6 6 6 6 7 7 9 8 8 9 9 10 7 7 8 7 13 19 20 21 20
4 5 6 6 6 7 6 5 5 6 4 4 4 4 7 8 8 6 6 7 8 6 6 6 7 7 8 8 8 9 10 10 10 7 10 10 10 10 7 14 19 19 19
4 4 5 5 6 6 4 5 4 4 4 4 4 4 7 6 7 6 6 8 8 6 7 7 7 8 5 8 10 11 9 10 7 6 8 9 9 10 8 7 6 8 16
3 6 5 6 6 3 2 3 3 3 3 4 4 7 7 6 8 8 6 8 8 6 8 10 6 7 5 7 8 7 10 10 4 5 4 6 7 9 6 6 5 4 6
4 5 6 6 5 3 2 2 2 3 4 3 4 6 7 8 8 8 8 7 7 5 7 6 6 5 5 6 5 7 4 5 2 5 7 6 5 6 5 5 6 6 5
4 5 5 6 5 4 5 3 4 3 3 3 6 5 7 7 8 9 8 7 7 4 5 6 6 7 7 7 8 4 3 3 8 2 8 8 7 3 3 4 5 4 2
3 4 4 5 4 4 5 3 4 2 3 3 3 4 6 7 7 8 9 8 8 7 7 6 6 7 7 8 5 5 5 4 3 4 3 8 6 7 5 4 4 5 3
2 3 3 4 4 4 4 2 3 4 3 3 4 7 6 7 7 8 8 8 8 7 8 9 9 7 6 3 4 4 2 4 3 3 3 5 5 4 6 4 4 5 6
2 3 3 4 3 5 4 4 4 5 6 5 5 5 5 5 5 6 9 7 7 7 8 7 8 8 7 7 5 4 3 2 3 2 2 3 6 3 3 6 7 6 6
Wind_Direction
336 339 348 2 4 0 359 353 349 351 345 354 2 347 353 354 352 350 347 345 343 337 333 334 329 324 321 317 319 320 326 328 333 339 340 344 353 339 312 307 303 304 306
322 348 356 4 6 359 355 350 347 346 346 359 354 358 355 353 348 355 352 352 350 343 334 331 330 328 322 321 317 315 318 319 324 331 339 357 358 340 321 295 291 281 274
35 354 349 13 1 359 355 350 343 342 359 1 356 360 358 352 351 354 349 349 343 338 340 338 332 326 315 310 312 309 308 311 313 322 329 337 343 339 327 322 282 275 271
29 3 339 10 5 1 359 353 346 347 354 355 346 0 352 347 352 350 345 344 344 335 334 332 333 331 320 318 314 315 308 303 305 307 321 330 339 330 327 320 318 300 265
25 5 340 12 9 4 358 354 356 352 358 351 351 1 353 348 355 354 347 344 342 343 335 332 326 333 320 316 315 315 311 308 305 304 323 328 322 320 317 314 312 312 307
31 7 358 19 12 4 357 355 352 358 359 355 359 357 353 360 358 351 353 344 345 337 337 337 327 325 329 329 319 310 311 305 309 312 305 303 307 309 310 308 304 300 303
40 20 7 19 13 8 6 8 6 2 356 2 4 356 352 355 353 343 347 342 343 334 334 337 337 330 316 324 329 335 330 333 342 327 302 288 266 298 300 300 306 308 301
60 30 27 20 17 14 10 6 8 6 10 5 2 2 1 355 349 348 339 346 334 337 331 334 330 331 324 320 322 328 330 326 336 338 326 311 304 287 288 292 295 302 303
46 39 22 14 13 7 5 4 7 2 7 6 5 355 358 356 348 350 351 345 341 337 332 335 333 330 323 326 321 327 329 321 338 326 319 327 315 298 284 286 287 292 297
35 29 14 9 4 355 3 1 12 15 18 11 3 354 1 5 356 345 348 337 342 339 333 325 332 326 328 324 332 322 316 317 326 317 315 308 302 293 292 285 287 288 289
16 20 14 8 2 356 26 11 22 18 18 11 11 2 4 351 343 349 346 340 341 336 330 334 323 326 330 338 324 319 322 315 307 305 306 303 310 296 289 283 280 282 282
2 351 15 9 4 5 21 15 4 5 358 354 359 359 355 342 337 350 346 343 345 335 339 333 333 328 329 312 307 316 298 297 298 300 300 305 307 302 287 286 282 277 274
332 353 355 357 7 19 7 11 357 354 3 348 353 349 340 347 336 326 321 316 313 325 311 320 307 308 306 306 300 298 294 291 291 296 300 301 302 307 292 283 280 277 266
358 346 343 357 10 10 3 5 0 1 2 349 333 333 340 328 325 321 313 309 301 305 304 300 307 299 280 288 288 286 285 280 279 287 289 297 296 294 293 284 277 273 271
5 343 347 353 4 0 12 358 357 352 346 329 325 316 334 327 325 316 308 311 307 307 296 302 299 314 299 313 296 293 274 272 271 274 282 293 291 288 289 289 279 277 268
343 350 335 356 4 3 4 353 334 331 327 327 317 312 316 315 313 312 315 311 303 295 295 303 299 302 310 311 295 290 296 277 268 266 277 286 292 286 287 291 285 276 279
329 332 343 338 4 6 352 331 326 309 319 314 306 311 311 311 307 305 303 300 294 299 299 304 291 285 312 304 293 293 292 290 268 260 269 273 283 290 286 289 292 284 277
357 340 321 344 351 354 341 330 325 316 315 306 305 306 305 305 302 301 299 296 297 300 294 290 296 307 307 299 300 289 290 279 275 259 260 260 270 274 283 285 294 292 283
344 332 341 348 348 339 336 334 328 331 330 318 317 316 316 316 311 311 305 299 305 303 302 294 303 307 305 306 302 301 298 290 283 277 270 265 264 269 267 277 293 293 287
346 343 346 345 347 346 336 331 341 338 332 330 330 320 317 313 314 312 309 306 310 308 307 305 299 304 287 289 298 301 295 283 273 263 277 272 260 259 259 270 280 284 279
359 350 346 337 337 360 332 332 324 318 314 327 333 325 323 319 323 321 318 318 319 307 298 299 308 306 302 300 292 301 305 290 282 266 280 280 259 261 258 268 268 259 272
313 318 336 340 343 338 336 316 283 290 296 286 304 314 332 334 321 322 322 320 333 327 308 319 309 310 285 299 296 301 312 320 303 340 319 315 265 256 262 284 292 294 281
321 322 333 329 338 338 351 336 333 332 318 325 341 330 325 315 321 323 316 331 320 318 307 304 301 292 303 310 288 280 308 310 330 349 322 327 332 302 354 320 317 319 300
299 320 329 335 349 348 354 5 3 323 311 286 285 300 315 318 316 326 328 336 331 333 330 315 308 303 292 310 326 346 285 272 324 321 335 326 330 16 1 5 355 360 5
322 324 324 335 2 353 357 349 353 337 285 292 311 328 320 321 327 331 333 330 338 334 328 336 342 324 310 315 334 328 335 306 310 310 319 329 326 14 10 14 14 17 12
323 4 1 1 341 353 351 347 354 331 323 328 329 331 326 321 315 327 337 333 330 338 333 333 331 340 354 348 326 328 353 347 318 315 301 299 322 331 354 11 35 23 19